Regional Weather Roundup
Issued by NWS Kansas City/Pleasant Hill, MO

Home | Current Version | Previous Version | Text Only | Print | Product List | Glossary On
Versions: 1 2 3 4 5 6 7 8 9 10 11 12 13 14 15 16 17 18 19 20 21 22 23 24 25 26 27 28 29 30 31 32 33 34 35 36 37 38 39 40 41 42 43 44 45 46 47 48 49 50
000
ASUS43 KEAX 280510
RWREAX

WEATHER ROUNDUP FOR EASTERN KANSAS AND NORTHWEST MISSOURI
NATIONAL WEATHER SERVICE KANSAS CITY/PLEASANT HILL MO
1200 AM CDT SUN MAY 28 2017

KSZ040-057-103>105-MOZ028-029-037-043-280600-
...KANSAS CITY METROPOLITAN AREA...

CITY           SKY/WX    TMP DP  RH WIND       PRES   REMARKS
K.C. INTL      CLOUDY    63  60  90 N5        29.87R
K.C. DOWNTOWN  CLOUDY    68  63  84 N5        29.86R
LEES SUMMIT    CLOUDY    65  63  93 N8        29.85F
OLATHE - IXD   CLOUDY    65  62  90 N9        29.88R
OLATHE - OJC   CLOUDY    66  64  93 N7        29.87S
LAWRENCE       PTCLDY    64  62  93 NW5       29.87R

$$

MOZ001>008-011>017-020>025-030>033-038>040-044>046-053-054-280600-
...NORTHERN AND CENTRAL MISSOURI...

CITY           SKY/WX    TMP DP  RH WIND       PRES   REMARKS
ST. JOSEPH     PTCLDY    61  61 100 N3        29.88R
MOSBY          CLOUDY    63  61  94 CALM      29.86S
WARRENSBURG    CLOUDY    61  59  94 CALM      29.83F
WHITEMAN AFB   CLOUDY    61  61 100 CALM      29.82F
CLINTON        CLOUDY    63  63 100 NE5       29.83F
SEDALIA        CLOUDY    63  63 100 NW5       29.84F
WARSAW         NOT AVBL
CHILLICOTHE      N/A     65  62  90 N5        29.86R
KIRKSVILLE     CLOUDY    62  61  96 N8        29.84R

$$

MOZ041-047>049-056>058-063>065-088>090-097-280600-
...EASTERN AND SOUTHERN MISSOURI...

CITY           SKY/WX    TMP DP  RH WIND       PRES   REMARKS
ST. LOUIS INTL CLOUDY    66  61  84 W3        29.80R
SPIRIT OF STL  CLOUDY    63  62  97 CALM      29.79R
COLUMBIA       CLOUDY    61  61 100 NW5       29.81F
JEFFERSON CITY CLOUDY    64  60  87 W5        29.82R
ROLLA          CLOUDY    61  61 100 N10       29.82R FOG
SPRINGFIELD    CLOUDY    64  63  96 S8        29.83R
BRANSON        HVY RAIN  64  63  94 CALM      29.88R
JOPLIN         CLOUDY    68  67  96 CALM      29.87R
WEST PLAINS    TSTM      62  60  93 SW12      29.90R

$$

IAZ060-094-KSZ022-034>040-054-083-096-NEZ052-066-093-280600-
...KANSAS...SOUTHEAST NEBRASKA AND IOWA...

CITY           SKY/WX    TMP DP  RH WIND       PRES   REMARKS
TOPEKA         CLEAR     63  62  97 NW5       29.88R
MANHATTAN      CLEAR     63  60  90 N3        29.90R
EMPORIA        PTCLDY    63  60  90 N7        29.90R
CHANUTE        CLOUDY    66  59  78 NW3       29.88R
WICHITA        CLOUDY    69  62  78 N13       29.93R
OMAHA          PTCLDY    59  54  83 NW5       29.92R
LINCOLN        CLEAR     63  53  70 NW7       29.96R
FALLS CITY     CLEAR     61  58  90 NW7       29.89S
LAMONI         CLEAR     58  56  93 N8        29.88R
DES MOINES     PTCLDY    59  55  87 NW6       29.87R

$$




USA.gov is the U.S. government's official web portal to all federal, state and local government web resources and services.